Location: Yucca Valley
(34.1140°N, 116.4310°W)
Time: 07:22:00
(UTC-08:00)

Daily predictions for brighter satellites

Satellite Brightness Start Highest point End
(mag) Time Altitude Azimuth Time Altitude Azimuth Time Altitude Azimuth
Cosmos 921 Rocket 3.6 16:55:32 10° SSE 16:59:25 36° E 17:03:22 10° NNE
SJ-12 4.0 16:58:15 10° SSE 17:02:14 53° ENE 17:06:15 10° N
Cosmos 1536 Rocket 3.7 16:59:41 10° S 17:04:09 89° W 17:08:39 10° N
Cosmos 494 Rocket 4.3 17:04:38 10° NNW 17:09:54 77° WSW 17:15:08 10° S
YAOGAN 1 2.6 17:09:37 10° SSE 17:13:52 60° ENE 17:18:08 10° N
ATLAS 2AS CENTAUR R/B 3.5 17:09:17 10° NW 17:17:11 66° WSW 17:24:25 10° SSE
COSMOS 2487 2.5 17:15:06 10° N 17:18:37 55° ENE 17:22:08 10° SSE
Cosmos 2297 3.7 17:13:34 10° SSW 17:19:12 88° WNW 17:24:52 10° NNE
Okean 1 3.9 17:15:15 10° SSW 17:19:14 61° W 17:23:16 10° N
SPOT 3 Rocket 3.5 17:16:27 10° SSE 17:21:38 84° ENE 17:26:49 10° NNW
Cosmos 1346 Rocket 3.0 17:20:56 10° SSW 17:24:49 74° W 17:28:42 10° N
KM-V1 4.0 17:24:08 10° WSW 17:26:42 39° S 17:28:15 14° ESE
Cosmos 2278 Rocket 3.8 17:23:45 10° SW 17:28:47 33° WNW 17:33:51 10° N
SMAP 3.2 17:24:49 10° S 17:29:28 81° WSW 17:34:08 10° NNW
Cosmos 1666 4.1 17:27:48 10° NNE 17:30:38 19° ENE 17:33:28 10° SE
Nadezhda 3 Rocket 4.0 17:24:38 10° S 17:30:49 76° E 17:37:05 10° N
Genesis I 3.4 17:28:39 10° NNW 17:32:34 75° WSW 17:36:26 10° SSE
SL-24 DEB 4.3 17:33:25 10° N 17:38:10 83° W 17:42:48 10° S
BREEZE M DEB (TANK) 3.8 17:28:05 10° WSW 17:39:00 56° NW 17:41:52 15° NE
Delta 2 Rocket 3.1 17:36:43 10° W 17:40:19 68° N 17:42:44 22° ENE
SKYMED 2 3.5 17:37:22 10° NNE 17:41:42 66° ESE 17:46:00 10° S
Tiangong 1 3.0 17:42:40 10° NW 17:44:47 17° N 17:45:43 15° NNE
CZ-3B DEB 4.1 17:43:04 10° WNW 17:46:43 22° N 17:53:40 10° NE
NOSS 7 (H) 4.3 17:46:03 10° SSW 17:49:30 65° ESE 17:51:02 29° NE
Cosmos 1833 Rocket 2.6 17:45:10 10° NNW 17:50:46 64° ENE 17:56:20 10° SSE
IDEFIX/ARIANE 42P 3.6 17:46:06 10° S 17:51:07 50° W 17:56:09 10° NNW
Cosmos 1500 4.5 17:48:20 10° NNW 17:51:59 43° W 17:55:39 10° SSW
Cosmos 1743 2.6 17:48:38 10° N 17:52:31 78° E 17:56:20 10° S
Cosmos 1892 Rocket 4.1 17:48:50 10° SSE 17:52:46 35° E 17:54:29 25° NE
Okean 1-7 Rocket 4.0 17:50:47 10° SSW 17:55:16 67° W 17:59:44 10° N
Cosmos 2082 Rocket 2.2 17:52:29 10° NNW 17:58:11 88° ENE 18:03:52 10° SSE
Meteor 1-28 Rocket 3.2 17:56:17 22° NNE 17:58:35 57° E 18:02:17 10° S
Cosmos 1484 Rocket 2.7 17:58:51 10° S 18:02:35 79° WSW 18:06:19 10° NNW
Cosmos 1726 Rocket 4.0 17:59:38 10° N 18:03:48 38° E 18:07:57 10° SSE
Okean 2 3.4 18:00:31 10° S 18:04:33 54° E 18:06:21 30° NNE
Intercosmos 25 4.0 18:09:52 10° NNW 18:12:56 47° W 18:16:37 10° S
Meteor 2-8 Rocket 4.3 18:13:04 10° S 18:19:07 86° E 18:25:15 10° N
Abrixas 3.6 18:16:20 10° NW 18:18:16 36° NW 18:18:16 36° NW
Chunghua 1 4.4 18:15:37 10° W 18:19:31 80° N 18:19:44 75° NE
Cosmos 1934 Rocket 3.9 18:14:18 10° N 18:20:34 79° E 18:26:53 10° S
Cosmos 1606 Rocket 3.4 18:18:31 10° N 18:23:02 80° E 18:27:29 10° S
Meteor 1-15 Rocket 4.1 18:22:38 10° N 18:28:32 73° E 18:34:16 10° SSE
Cosmos 1339 Rocket 4.5 18:23:24 10° SSE 18:29:15 53° E 18:30:39 44° NE
COSMO-SKYMED 1 4.2 18:25:46 10° N 18:29:38 32° WNW 18:33:29 10° SW
Cosmos 2369 Rocket 2.3 18:27:06 10° S 18:32:33 52° ESE 18:32:38 52° ESE
Meteor 2-9 Rocket 4.2 18:30:26 10° NNW 18:35:48 75° W 18:41:05 10° S
Cosmos 407 Rocket 3.8 18:38:53 10° NNW 18:42:47 51° N 18:42:47 51° N
NOAA 12 4.3 18:39:48 10° S 18:45:03 71° WSW 18:50:19 10° NNW
Cosmos 1340 3.6 18:41:53 10° SSW 18:44:48 45° SW 18:44:48 45° SW
NOSS 3-4 (A) 3.8 18:46:08 10° NNW 18:53:18 88° WSW 18:58:56 20° SSE
NOSS 3-4 (C) 3.8 18:46:14 10° NNW 18:53:24 88° WSW 18:58:45 21° SSE
Cosmos 1605 Rocket 4.3 18:58:06 10° NNW 19:04:17 65° W 19:10:21 10° S
Cosmos 1943 Rocket 4.2 18:59:23 10° S 19:00:22 15° S 19:00:22 15° S
Gbstr 26 Del rocket 4.4 19:16:57 10° SW 19:24:36 80° SW 19:24:36 80° SW
FALCON 9 R/B 3.6 19:42:33 10° W 19:53:49 53° W 19:53:49 53° W
ATLAS 3B CENTAUR R/B 4.0 19:49:20 10° W 20:00:49 40° SW 20:00:49 40° SW
